Weather in Barletta

Italy     41°19′12″N   16°16′27″E
temp.,
°C
wind,
m/s
gust,
m/s
humid.,
%
clouds,
%
prec.,
mm/h
press.,
hPa
HPBL,
m
22 april, thu
thu2223:00+11sse5106876 0.0 1019252
02:00+10se1276100 0.0 101955
05:00+10s2478100 0.0 1019115
08:00+11wnw1377100 0.1 1019121
11:00+11ne1280100 0.1 1019205
14:00+14sw0274100 0.3 1018512
17:00+12nnw1188100 0.6 101797
20:00+12wsw0089100 0.8 101823
23 april, fri
fri2323:00+12ese1190100 0.4 101826
02:00+12w2290100 0.4 101855
05:00+11w2295100 0.1 101858
08:00+12wsw2287100 0.1 1019201
11:00+14nnw1175100 0.1 1020616
14:00+14n6682100 0.3 1019689
17:00+13ne6890100 1.2 1019562
20:00+12n5892100 2.1 1019440
24 april, sat
sat2423:00+12ne2395100 0.5 1019116
02:00+12ne5892100 2.8 1019571
05:00+12ne3693100 2.1 1019376
08:00+12wnw3689100 2.9 1019276
11:00+15nne5764100 0.0 10191025
14:00+15n686297 0.0 1019914
17:00+15nne46520 0.0 1019608
20:00+12w48640 0.0 1019142
25 april, sun
sun2523:00+9wsw59690 0.0 1020191
02:00+8wsw47620 0.0 1020118
05:00+8sw47560 0.0 1019105
08:00+12wsw57510 0.0 1020224
11:00+17wnw33425 0.0 1020748
14:00+18ne434317 0.0 1020918
17:00+15ne55615 0.0 1020370
20:00+12se22711 0.0 102025
26 april, mon
mon2623:00+12sw226488 0.0 102024
02:00+10sw22638 0.0 101928
05:00+10s115528 0.0 101822
08:00+14s11525 0.0 101894
11:00+19e13435 0.0 1017780
14:00+21ene224798 0.0 1015730
17:00+21s4455100 0.0 1013730
20:00+16s4870100 0.0 1012150